This is the latest recevied weather packets stored in our database for station/object N5SRF. If no packets are shown the sender has not sent any weather packets the latest 10 day(s).
| Time | Temp. | Humidity | Pressure | Rain* | Wind** | Luminosity | Snow |
|---|---|---|---|---|---|---|---|
| 1777621535 | 16.67° C | 99% | 1016.2 hPa | 0 mm | - | 0 W/m² | - |
| 1777621232 | 16.67° C | 99% | 1016.1 hPa | 0 mm | - | 0 W/m² | - |
| 1777620928 | 16.67° C | 99% | 1016.3 hPa | 1.27 mm | - | 0 W/m² | - |
| 1777620623 | 16.67° C | 99% | 1015.8 hPa | 3.05 mm | - | 0 W/m² | - |
| 1777620320 | 16.67° C | 99% | 1014.4 hPa | 3.05 mm | - | 0 W/m² | - |
| 1777620017 | 16.67° C | 99% | 1015.2 hPa | 3.05 mm | - | 0 W/m² | - |
| 1777619714 | 16.67° C | 99% | 1016 hPa | 3.05 mm | - | 0 W/m² | - |
| 1777619413 | 16.67° C | 99% | 1015.8 hPa | 3.05 mm | - | 0 W/m² | - |
| 1777619108 | 16.67° C | 99% | 1015.3 hPa | 1.78 mm | - | 0 W/m² | - |
| 1777618803 | 17.22° C | 99% | 1016.2 hPa | 1.27 mm | - | 0 W/m² | - |
| 1777618498 | 17.22° C | 99% | 1016.4 hPa | 1.27 mm | - | 0 W/m² | - |
| 1777618194 | 17.22° C | 99% | 1016.3 hPa | 0 mm | - | 0 W/m² | - |
| 1777617891 | 17.22° C | 99% | 1016.1 hPa | 0 mm | - | 0 W/m² | - |
| 1777617587 | 17.22° C | 99% | 1016.4 hPa | 0 mm | - | 0 W/m² | - |
| 1777617283 | 17.22° C | 99% | 1016.5 hPa | 0 mm | - | 0 W/m² | - |
| 1777616981 | 17.22° C | 99% | 1016.6 hPa | 1.78 mm | - | 0 W/m² | - |
| 1777616676 | 17.22° C | 99% | 1017 hPa | 1.78 mm | - | 0 W/m² | - |
| 1777616371 | 17.22° C | 99% | 1016.7 hPa | 0 mm | - | 0 W/m² | - |
| 1777616067 | 17.22° C | 99% | 1016.7 hPa | 0 mm | - | 0 W/m² | - |
| 1777615765 | 17.22° C | 99% | 1016.5 hPa | 0 mm | - | 0 W/m² | - |
| 1777615462 | 17.78° C | 99% | 1016.8 hPa | 0 mm | - | 0 W/m² | - |
| 1777615160 | 17.78° C | 99% | 1017.1 hPa | 0 mm | - | 0 W/m² | - |
| 1777614857 | 17.78° C | 99% | 1017.1 hPa | 1.27 mm | - | 0 W/m² | - |
| 1777614554 | 17.78° C | 99% | 1017.1 hPa | 1.27 mm | - | 0 W/m² | - |
| 1777614249 | 17.78° C | 99% | 1017.7 hPa | 0 mm | - | 0 W/m² | - |
* Rain latest hour (hover to see other rain measurements)
** Current wind speed in m/s (hover to see current wind gust speed)